Regional Weather Roundup
Issued by NWS Grand Forks, ND

Home | Current Version | Previous Version | Text Only | Print | Product List | Glossary Off
Versions: 1 2 3 4 5 6 7 8 9 10 11 12 13 14 15 16 17 18 19 20 21 22 23 24 25 26 27 28 29 30 31 32 33 34 35 36 37 38 39 40 41 42 43 44 45 46 47 48 49 50

000
ASUS43 KFGF 280031
RWRFGF
PRAIRIE TO PINES  WEATHER ROUNDUP
NATIONAL WEATHER SERVICE EASTERN NORTH DAKOTA/GRAND FORKS ND
700 PM CDT FRI MAR 27 2015

 **SATELLITE DATA USED TO AUGMENT SKY COVER AT AUTOMATED STATIONS**
 *****  WEATHER ACROSS EASTERN NORTH DAKOTA  *****

CITY           SKY/WX    TMP DP  RH WIND       PRES   REMARKS
GRAND FORKS    CLOUDY    33  20  58 S15       30.08S WCI  23
6HR MIN TEMP:  32; 6HR MAX TEMP:  35; 6HR PCP: TRACE;

GRAND FRKS AFB FLURRIES  30  27  86 S12       30.06F WCI  21
GRAND FRKS NWS   N/A     30 N/A N/A S14         N/A  WCI  20
DEVILS LAKE    CLOUDY    28  27  93 SE15      29.99R WCI  17
6HR MIN TEMP:  27; 6HR MAX TEMP:  28;

FARGO          LGT SNOW  31  24  75 S7        30.10R WCI  24
WAHPETON ARPT  CLOUDY    32  16  51 SW6       30.11R
$$

 ***** WEATHER ACROSS CENTRAL AND WESTERN NORTH DAKOTA  *****

CITY           SKY/WX    TMP DP  RH WIND       PRES   REMARKS
BISMARCK       MOSUNNY   50  34  54 E6        29.90R
6HR MIN TEMP:  33; 6HR MAX TEMP:  51;

MINOT          PTSUNNY   45  35  68 NE12      29.90R
6HR MIN TEMP:  38; 6HR MAX TEMP:  53;

JAMESTOWN      FRZ RAIN  29  27  92 S14       30.00R FOG     WCI  18
6HR MIN TEMP:  27; 6HR MAX TEMP:  29; 6HR PCP:  0.12;

MINOT AFB      PTSUNNY   43  40  87 NE12      29.90R
GARRISON         N/A     52  38  58 N15       29.89R
WILLISTON      MOSUNNY   60  37  42 N12       29.88F
6HR MIN TEMP:  55; 6HR MAX TEMP:  64;

DICKINSON      SUNNY     60  34  37 N15       29.88R
6HR MIN TEMP:  60; 6HR MAX TEMP:  65;

HETTINGER      SUNNY     63  34  33 N15G22    29.89S
6HR MIN TEMP:  60; 6HR MAX TEMP:  67;

$$

 *****  OTHER AIRPORT OBSERVATIONS IN OUR AREA  *****

CITY           SKY/WX    TMP DP  RH WIND       PRES   REMARKS
WALHALLA         N/A     30  30 100 SE10G16   30.06R WCI  21
GRAFTON AIRPOR NOT AVBL
VALLEY CITY AR MOCLDY    28  28 100 SE12      30.03S FOG     WCI  18
CANDO          CLOUDY    28  27  93 SE13      29.99S WCI  18
CAVALIER APRT  MIX PCPN  28  27  93 SE10      30.07R WCI  19
GWINNER          N/A     32  32 100 SE12        N/A  WCI  23
SHEYENNE NWR     N/A     29  27  94 SE7       29.95  WCI  22
ROLLA          CLOUDY    27  27 100 SE13      29.97S WCI  16
 ***** THE ABOVE OBSERVATIONS ARE NON NWS ARE NOT QUALITY
       CONTROLLED AND MAY MIS-REPORT RAIN FOR SNOW...
$$

  *****  WEATHER ACROSS NORTHERN MINNESOTA  *****

CITY           SKY/WX    TMP DP  RH WIND       PRES   REMARKS
FLAG ISLAND    CLOUDY    27   9  46 SE6       30.09S WCI  20
WARROAD        PTCLDY    28  19  69 E3        30.10S
ROSEAU         PTCLDY    32  18  55 S7        30.09S
HALLOCK        MOCLDY    32  21  64 SE14      30.09R WCI  22
THF RVR FALLS  CLOUDY    30  18  59 S8        30.09F WCI  23
6HR MIN TEMP:  28; 6HR MAX TEMP:  34;

BAUDETTE       CLOUDY    32   8  36 SE5       30.09R
6HR MIN TEMP:  29; 6HR MAX TEMP:  35;

WASKISH        MOCLDY    30   7  37 CALM      30.10S
CROOKSTON      CLOUDY    30  21  69 S10       30.11S WCI  21
STEPHEN NDAWN    N/A     30  19  64 S14         N/A  WCI  20
GREENBUSH NDAW   N/A     30  19  64 S9          N/A  WCI  22
$$
  *****  WEATHER ACROSS CENTRAL AND WEST MINNESOTA  *****

CITY           SKY/WX    TMP DP  RH WIND       PRES   REMARKS
FOSSTON        CLOUDY    30   7  37 S6        30.09F WCI  24
BEMIDJI        CLOUDY    32   6  32 SW3       30.08S
PARK RAPIDS    CLOUDY    34   4  28 S5        30.08R
6HR MIN TEMP:  31; 6HR MAX TEMP:  37;

ELBOW LAKE     CLOUDY    32  13  46 SE7       30.10R
6HR MIN TEMP:  30; 6HR MAX TEMP:  33;

WADENA         CLOUDY    30  10  43 SW7       30.10R WCI  23
DETROIT LAKES  CLOUDY    32  10  40 SW3       30.10S
MOORHEAD       LGT SNOW  32  21  64 S8        30.11S WCI  25
FERGUS FALLS   CLOUDY    32   5  32 S6        30.13S
MORRIS MN      CLOUDY    34  19  55 SE8       30.09R
STAPLES        CLOUDY    30   3  31 SW5       30.11R
$$
  *****  WEATHER ELSEWHERE ACROSS MINNESOTA  *****

CITY           SKY/WX    TMP DP  RH WIND       PRES   REMARKS
DULUTH         PTCLDY    25   4  40 SE10      30.11F WCI  15
6HR MIN TEMP:  25; 6HR MAX TEMP:  30;

INTRNTL FALLS  PTCLDY    32   8  36 E6        30.09S
6HR MIN TEMP:  27; 6HR MAX TEMP:  36;

ELY            CLEAR     30  -2  24 CALM      30.09F
CLOQUET        PTCLDY    28   3  34 SE7       30.12R WCI  21
WHEATON        CLOUDY    30  18  59 S9        30.12R WCI  22
BRAINERD       CLOUDY    33   2  26 S6        30.11R
6HR MIN TEMP:  29; 6HR MAX TEMP:  35;

HIBBING        PTCLDY    30   3  31 CALM      30.09S
6HR MIN TEMP:  28; 6HR MAX TEMP:  35;

ALEXANDRIA     CLOUDY    31  13  47 S8        30.11R WCI  23
6HR MIN TEMP:  28; 6HR MAX TEMP:  32;

SAINT CLOUD    CLOUDY    32   7  35 S9        30.13S WCI  24
6HR MIN TEMP:  29; 6HR MAX TEMP:  35;

MINNEAPOLIS    MOCLDY    32   5  32 SW10      30.16R WCI  24
6HR MIN TEMP:  30; 6HR MAX TEMP:  36;

$$

  *****  WEATHER ACROSS SOUTH DAKOTA  *****

CITY           SKY/WX    TMP DP  RH WIND       PRES   REMARKS
SIOUX FALLS    CLOUDY    33  21  61 S12       30.06F WCI  24
6HR MIN TEMP:  32; 6HR MAX TEMP:  37; 6HR PCP: TRACE;

BROOKINGS      NOT AVBL
WATERTOWN      CLOUDY    30  25  81 SE9       30.02F WCI  22
6HR MIN TEMP:  30; 6HR MAX TEMP:  36; 6HR PCP: TRACE;

HURON          CLOUDY    32  28  85 S12       30.02S WCI  23
6HR MIN TEMP:  30; 6HR MAX TEMP:  34; 6HR PCP:  0.03;

SISSETON         N/A     30  28  92 S7        30.07S WCI  23
ABERDEEN       CLOUDY    32  27  81 S15G21    30.00F WCI  22
6HR MIN TEMP:  30; 6HR MAX TEMP:  32; 6HR PCP:  0.03;

MITCHELL       CLOUDY    35  27  72 S17       30.02F WCI  25
PIERRE         PTSUNNY   45  33  63 E15       29.89R
6HR MIN TEMP:  35; 6HR MAX TEMP:  51;

MOBRIDGE       SUNNY     49  34  56 SE13      29.88R
RAPID CITY     MOSUNNY   66  35  31 N20       29.92S
6HR MIN TEMP:  64; 6HR MAX TEMP:  70;

$$

  *****  SOME WEATHER IN NEARBY STATES *****

CITY           SKY/WX    TMP DP  RH WIND       PRES   REMARKS
GLASGOW MT     MOSUNNY   68  34  28 W14       29.87S
6HR MIN TEMP:  59; 6HR MAX TEMP:  71;

GREAT FALLS MT MOSUNNY   70  29  21 SW17      29.94S
6HR MIN TEMP:  68; 6HR MAX TEMP:  74;

CHEYENNE WY    MOSUNNY   64  24  21 NW17G36   30.09S
6HR MIN TEMP:  57; 6HR MAX TEMP:  66;

SCOTTSBLUFF NE MOSUNNY   67  32  27 N13       29.97S
6HR MIN TEMP:  63; 6HR MAX TEMP:  73;

OMAHA NE       CLOUDY    38  18  44 S3        30.15S
6HR MIN TEMP:  36; 6HR MAX TEMP:  41;

DES MOINES IA  CLOUDY    39   7  26 W3        30.15S
6HR MIN TEMP:  37; 6HR MAX TEMP:  41;

DAVENPORT IA   CLEAR     33   7  33 NE7       30.17R
6HR MIN TEMP:  32; 6HR MAX TEMP:  38;

CHICAGO IL     PTCLDY    26  13  57 NE12      30.18R WCI  16
6HR MIN TEMP:  26; 6HR MAX TEMP:  31;

EAU CLAIRE WI  CLEAR     33   5  30 CALM      30.15R
6HR MIN TEMP:  30; 6HR MAX TEMP:  36;

LA CROSSE WI   CLEAR     34   9  35 W3        30.17R
6HR MIN TEMP:  31; 6HR MAX TEMP:  37;

$$

  *****  SOME NATIONAL WEATHER *****

CITY           SKY/WX    TMP DP  RH WIND       PRES   REMARKS
LA GUARDIA NY  CLOUDY    45  28  51 N10       29.75R
6HR MIN TEMP:  44; 6HR MAX TEMP:  46;

RALEIGH NC     LGT RAIN  43  37  81 NE8       29.81R
6HR MIN TEMP:  42; 6HR MAX TEMP:  46; 6HR PCP:  0.01;

ATLANTA GA     MOCLDY    52  26  36 NW20G31   29.88R
6HR MIN TEMP:  52; 6HR MAX TEMP:  59;

NEW ORLEANS LA PTCLDY    65  39  38 NW10      30.03R
6HR MIN TEMP:  62; 6HR MAX TEMP:  70;

OKLAHOMA CITY  MOCLDY    56  34  43 W6        30.15R
6HR MIN TEMP:  49; 6HR MAX TEMP:  57;

ALBUQUERQUE NM MOSUNNY   76  15  10 NW16      30.13F
6HR MIN TEMP:  63; 6HR MAX TEMP:  77;

SALT LAKE CITY SUNNY     71  32  23 N7        30.16F
6HR MIN TEMP:  60; 6HR MAX TEMP:  72;



USA.gov is the U.S. government's official web portal to all federal, state and local government web resources and services.